GSLV R/B, 62851

Orbit data source: Space-Track

GSLV R/B, 62851 is space debris in HEO originally from a launch on Wed, 29 Jan 2025 UTC launched from the Sirharikota (SRI). Debris objects in space refer to the collection of defunct objects orbiting the Earth. Examples of debris include non-operational satellites, rocket bodies, and fragments generated from explosions, collisions, or faulty payload assembly.

Loading next visibility...
Identifier
62851, 2025-020B
Orbit
HEO
Country
Flag of ININ / IND
Related business
Manufacturer
ISRO
Mission
Spacecraft
Bus & Motor
CUS15, Unknown motor
Mass
2,630 kg wet, 2,630 kg dry
Launch date (UTC)
2025-01-29 (7 months ago)
Launch vehicle
Unknown
Launch site
Sirharikota (SRI)
Object type
Payload
Rocket body
Debris
Shape & HBR
Cyl, 4.3 m
Radar Cross Section
22.211 m², Large (>1 m²)

Expand to show TLE details & history
Last TLE update: 4 days ago

TLE from 4 days ago
0 GSLV R/B
1 62851U 25020B   25246.64750118  .00089892  15719-5  33038-2 0  9995
2 62851  21.1100 359.7282 7250805 328.4424   3.6536  2.35913096  4891
Epoch: 2025-09-03T15:32Z
TLE epoch observation values (Epoch: 2025-09-03T15:32:24.101Z)
Latitude
-0.00007°
Longitude
143.61317°
Altitude
584.662 km
Speed
9.887 km/s
True Right ascension
23h 58m 56s
True Declination
0° 00' 00"
Sunlit
Object was in full shadow at epoch
Visualization orbit readout
Latitude
Unknown
Longitude
Unknown
Altitude
Unknown
Speed
Unknown
Apparent Right ascension
Unknown
Apparent Declination
Unknown
Sunlit
N/A
Visualization observer readout
Local Sidereal Time
20:16:20
Azimuth
Unknown
Elevation
Unknown
Doppler factor
Unknown
Orbital elements
Apogee altitude
34,748.809 km
Perigee altitude
176.108 km
Semi-major axis
23,840.595 km
Eccentricity
0.72508
Inclination
21.11°
RAAN
359.7282°
Arg. of periapsis
328.4424°
True anomaly
31.84984°
Mean anomaly
3.6536°
Eccentric anomaly
12.99652°
Mean motion
0.58961 °/min
Orbital period
610.57 mins
BSTAR
0.0033038
Loading maneuver chart data...
Computing Atmospheric mass density...
Loading historical data...
Loading historical data...
Loading historical data...
Loading historical data...
Loading historical data...
Loading historical data...
Loading historical data...
Other satellites on launch #20 in the year 2025 (2025-01-29 UTC)

Documentation

Showing up to 5 results
|